This is the latest recevied weather packets stored in our database for station/object AB2HM. If no packets are shown the sender has not sent any weather packets the latest 10 day(s).
| Time | Temp. | Humidity | Pressure | Rain* | Wind** | Luminosity | Snow |
|---|---|---|---|---|---|---|---|
| 1777714209 | 10.56° C | 80% | 1012.9 hPa | 0 mm | - | - | - |
| 1777710607 | 11.67° C | 76% | 1012.9 hPa | 0 mm | - | - | - |
| 1777708802 | 12.22° C | 76% | 1012.5 hPa | 0 mm | - | - | - |
| 1777706989 | 12.22° C | 80% | 1012.9 hPa | 0 mm | - | - | - |
| 1777705189 | 12.22° C | 82% | 1012.9 hPa | 0 mm | - | - | - |
| 1777703389 | 12.22° C | 84% | 1013.1 hPa | 0 mm | - | - | - |
| 1777701585 | 12.22° C | 83% | 1013.3 hPa | 0 mm | - | - | - |
| 1777699768 | 12.78° C | 81% | 1013.2 hPa | 0 mm | - | - | - |
| 1777697966 | 12.78° C | 80% | 1013.3 hPa | 0 mm | - | - | - |
| 1777696162 | 12.78° C | 78% | 1013.4 hPa | 0 mm | - | - | - |
| 1777694360 | 12.22° C | 75% | 1013.2 hPa | 0 mm | - | - | - |
| 1777692556 | 12.22° C | 71% | 1012.8 hPa | 0 mm | - | - | - |
| 1777690753 | 12.78° C | 69% | 1013.2 hPa | 0 mm | - | - | - |
| 1777688949 | 13.33° C | 66% | 1013.5 hPa | 0 mm | - | - | - |
| 1777687143 | 13.33° C | 64% | 1013.3 hPa | 0 mm | - | - | - |
| 1777685318 | 13.89° C | 61% | 1013.3 hPa | 0 mm | - | - | - |
| 1777683508 | 14.44° C | 56% | 1013.1 hPa | 0 mm | - | - | - |
| 1777681707 | 15.56° C | 52% | 1012.7 hPa | 0 mm | - | - | - |
| 1777679901 | 16.67° C | 47% | 1012.6 hPa | 0 mm | - | - | - |
| 1777678096 | 17.22° C | 42% | 1012.4 hPa | 0 mm | - | - | - |
| 1777676296 | 17.78° C | 40% | 1012.1 hPa | 0 mm | - | - | - |
| 1777674497 | 18.33° C | 40% | 1012.1 hPa | 0 mm | - | - | - |
| 1777672696 | 18.33° C | 38% | 1012.2 hPa | 0 mm | - | - | - |
| 1777670896 | 18.89° C | 37% | 1012.2 hPa | 0 mm | - | - | - |
| 1777669094 | 19.44° C | 38% | 1012.3 hPa | 0 mm | - | - | - |
* Rain latest hour (hover to see other rain measurements)
** Current wind speed in m/s (hover to see current wind gust speed)